Weather History for Lexington, NE

Change the Weather History Date:

Tuesday, February 19, 2013

  Actual Average Record
Temperature  
Mean Temperature 24 °F -  
Max Temperature 35 °F 41 °F 58 °F (2014)
Min Temperature 14 °F 20 °F 3 °F (2000)
Degree Days  
Heating Degree Days 40    
Moisture  
Dew Point 10 °F    
Average Humidity 60    
Maximum Humidity 89    
Minimum Humidity 34    
Precipitation  
Precipitation 0.00 in - - ()
Sea Level Pressure  
Sea Level Pressure 30.20 in    
Wind  
Wind Speed 8 mph (NNE)    
Max Wind Speed 15 mph    
Max Gust Speed 18 mph    
Visibility 10 miles    
Events      
Averages and records for this station are not official NWS values.
T = Trace of Precipitation, MM = Missing Value Source: NWS Daily Summary

Daily Weather History Graph

Daily Weather History Graph

Search for Another Location

Airport:

Trip Planner

Search our weather history database for the weather conditions in past years. The results will help you decide how hot, cold, wet, or windy it might be!

Date:

Astronomy

Feb. 19, 2013 Rise Set
Actual Time 7:27 AM CST 6:19 PM CST
Civil Twilight 6:59 AM CST 6:46 PM CST
Nautical Twilight 6:27 AM CST 7:18 PM CST
Astronomical Twilight 5:55 AM CST 7:50 PM CST
Moon 12:50 PM CST (2/19) 3:01 AM CST (2/19)
Length of Visible Light 11h 47m
Length of Day
10h 51m
Waxing Gibbous, 67% of the Moon is Illuminated
Feb 19
Waxing Gibbous
Feb 25
Full
Mar 4
Last Quarter
Mar 11
New
Mar 19
First Quarter

Hourly Weather History & Observations

Time (CST) Temp. Windchill Dew Point Humidity Pressure Visibility Wind Dir Wind Speed Gust Speed Precip Events Conditions
12:15 AM 21.9 °F 14.5 °F 16.7 °F 80% 30.13 in 10.0 mi NW 5.8 mph - N/A   Clear
12:35 AM 20.8 °F 12.1 °F 15.8 °F 81% 30.14 in 10.0 mi WNW 6.9 mph - N/A   Clear
12:55 AM 19.4 °F 10.4 °F 15.8 °F 86% 30.15 in 10.0 mi NW 6.9 mph - N/A   Clear
1:15 AM 17.8 °F 9.6 °F 14.7 °F 88% 30.15 in 10.0 mi NW 5.8 mph - N/A   Clear
1:35 AM 18.5 °F 13.3 °F 15.6 °F 89% 30.15 in 10.0 mi NNW 3.5 mph - N/A   Clear
1:55 AM 17.8 °F 9.6 °F 14.7 °F 88% 30.16 in 10.0 mi NW 5.8 mph - N/A   Clear
2:15 AM 17.1 °F 5.8 °F 14.0 °F 88% 30.16 in 10.0 mi NNW 9.2 mph - N/A   Clear
2:35 AM 16.7 °F 7.2 °F 12.9 °F 85% 30.17 in 10.0 mi NNW 6.9 mph - N/A   Clear
2:55 AM 16.2 °F 6.5 °F 12.4 °F 85% 30.17 in 10.0 mi NW 6.9 mph - N/A   Clear
3:15 AM 15.3 °F 4.4 °F 11.3 °F 84% 30.17 in 10.0 mi NNW 8.1 mph - N/A   Clear
3:35 AM 14.9 °F 6.1 °F 11.3 °F 86% 30.16 in 10.0 mi NNW 5.8 mph - N/A   Clear
3:55 AM 14.2 °F 1.4 °F 10.6 °F 86% 30.16 in 10.0 mi NNW 10.4 mph - N/A   Clear
4:15 AM 14.7 °F 4.8 °F 10.8 °F 84% 30.16 in 10.0 mi WNW 6.9 mph - N/A   Clear
4:35 AM 14.9 °F 5.0 °F 10.8 °F 84% 30.17 in 10.0 mi WNW 6.9 mph - N/A   Clear
4:55 AM 15.1 °F 3.3 °F 11.5 °F 86% 30.18 in 10.0 mi West 9.2 mph - N/A   Clear
5:15 AM 17.6 °F 6.4 °F 12.4 °F 80% 30.19 in 10.0 mi WNW 9.2 mph - N/A   Clear
6:35 AM 15.4 °F 5.6 °F 11.1 °F 83% 30.20 in 10.0 mi WNW 6.9 mph - N/A   Clear
6:55 AM 14.9 °F 4.0 °F 10.8 °F 84% 30.21 in 10.0 mi WNW 8.1 mph - N/A   Clear
7:15 AM 14.9 °F 4.0 °F 10.8 °F 84% 30.22 in 10.0 mi WNW 8.1 mph - N/A   Clear
7:35 AM 14.0 °F 2.9 °F 9.9 °F 84% 30.23 in 10.0 mi WNW 8.1 mph - N/A   Clear
7:55 AM 15.6 °F 4.9 °F 11.5 °F 84% 30.24 in 10.0 mi WNW 8.1 mph - N/A   Clear
8:15 AM 17.8 °F 7.5 °F 12.6 °F 80% 30.25 in 10.0 mi NW 8.1 mph - N/A   Clear
8:35 AM 18.5 °F 8.4 °F 12.9 °F 79% 30.24 in 10.0 mi NNW 8.1 mph - N/A   Clear
8:55 AM 19.4 °F 9.5 °F 13.3 °F 77% 30.25 in 10.0 mi NNW 8.1 mph - N/A   Clear
9:15 AM 19.9 °F 11.1 °F 13.5 °F 76% 30.26 in 10.0 mi NNW 6.9 mph - N/A   Clear
9:35 AM 20.7 °F 13.0 °F 13.6 °F 74% 30.27 in 10.0 mi North 5.8 mph - N/A   Clear
9:55 AM 22.6 °F 13.4 °F 14.7 °F 72% 30.27 in 10.0 mi North 8.1 mph - N/A   Clear
10:15 AM 23.7 °F 15.6 °F 13.6 °F 65% 30.27 in 10.0 mi North 6.9 mph - N/A   Clear
10:35 AM 24.6 °F 17.7 °F 14.4 °F 65% 30.26 in 10.0 mi NNW 5.8 mph - N/A   Clear
11:15 AM 26.4 °F 19.8 °F 13.1 °F 57% 30.27 in 10.0 mi North 5.8 mph - N/A   Clear
11:35 AM 28.2 °F 22.0 °F 13.5 °F 54% 30.27 in 10.0 mi NW 5.8 mph - N/A   Clear
11:55 AM 29.1 °F 23.0 °F 13.3 °F 52% 30.27 in 10.0 mi North 5.8 mph - N/A   Clear
12:15 PM 28.8 °F 23.7 °F 12.6 °F 51% 30.26 in 10.0 mi NNE 4.6 mph - N/A   Clear
12:35 PM 30.0 °F - 12.9 °F 49% 30.25 in 10.0 mi Calm Calm - N/A   Clear
12:55 PM 31.1 °F 26.4 °F 13.1 °F 47% 30.25 in 10.0 mi West 4.6 mph - N/A   Clear
1:15 PM 31.6 °F - 12.9 °F 46% 30.24 in 10.0 mi Calm Calm - N/A   Clear
1:35 PM 32.0 °F 28.7 °F 12.7 °F 45% 30.23 in 10.0 mi ESE 3.5 mph - N/A   Clear
1:55 PM 33.3 °F 27.1 °F 13.1 °F 43% 30.21 in 10.0 mi NE 6.9 mph - N/A   Clear
2:15 PM 33.1 °F 27.7 °F 12.6 °F 43% 30.20 in 10.0 mi East 5.8 mph - N/A   Clear
2:35 PM 33.4 °F 29.1 °F 11.7 °F 41% 30.20 in 10.0 mi East 4.6 mph - N/A   Clear
2:55 PM 34.5 °F 29.4 °F 11.3 °F 38% 30.19 in 10.0 mi East 5.8 mph - N/A   Clear
3:15 PM 34.9 °F 27.7 °F 11.3 °F 38% 30.18 in 10.0 mi East 9.2 mph - N/A   Clear
3:35 PM 35.1 °F 27.9 °F 10.4 °F 36% 30.18 in 10.0 mi East 9.2 mph - N/A   Clear
3:55 PM 34.9 °F 28.3 °F 10.0 °F 36% 30.17 in 10.0 mi East 8.1 mph - N/A   Clear
4:15 PM 35.4 °F 27.3 °F 9.1 °F 34% 30.17 in 10.0 mi East 11.5 mph - N/A   Clear
4:35 PM 34.0 °F 26.0 °F 9.1 °F 36% 30.16 in 10.0 mi East 10.4 mph - N/A   Clear
4:55 PM 33.4 °F 25.4 °F 8.8 °F 36% 30.16 in 10.0 mi East 10.4 mph - N/A   Clear
5:15 PM 33.8 °F 23.9 °F 8.1 °F 34% 30.15 in 10.0 mi East 15.0 mph - N/A   Clear
6:35 PM 28.4 °F 19.1 °F 5.0 °F 37% 30.16 in 10.0 mi East 10.4 mph - N/A   Clear
6:55 PM 27.3 °F 17.1 °F 4.5 °F 38% 30.16 in 10.0 mi East 11.5 mph - N/A   Clear
7:15 PM 26.6 °F 16.8 °F 3.2 °F 37% 30.18 in 10.0 mi East 10.4 mph - N/A   Clear
7:35 PM 26.1 °F 16.2 °F 2.8 °F 37% 30.18 in 10.0 mi East 10.4 mph - N/A   Clear
7:55 PM 24.8 °F 14.6 °F 3.0 °F 39% 30.19 in 10.0 mi East 10.4 mph - N/A   Clear
8:15 PM 24.3 °F 13.9 °F 3.4 °F 41% 30.19 in 10.0 mi East 10.4 mph - N/A   Clear
8:35 PM 23.5 °F 11.8 °F 3.0 °F 41% 30.19 in 10.0 mi East 12.7 mph 17.3 mph N/A   Clear
8:55 PM 23.0 °F 11.1 °F 2.5 °F 41% 30.19 in 10.0 mi East 12.7 mph - N/A   Clear
9:15 PM 22.1 °F 10.0 °F 2.3 °F 42% 30.19 in 10.0 mi East 12.7 mph - N/A   Clear
9:35 PM 21.9 °F 11.0 °F 1.8 °F 42% 30.19 in 10.0 mi East 10.4 mph - N/A   Clear
9:55 PM 21.2 °F 9.5 °F 1.8 °F 43% 30.20 in 10.0 mi East 11.5 mph - N/A   Clear
10:15 PM 21.2 °F 8.3 °F 1.2 °F 42% 30.20 in 10.0 mi East 13.8 mph - N/A   Clear
10:35 PM 21.0 °F 9.3 °F 2.1 °F 44% 30.21 in 10.0 mi ESE 11.5 mph - N/A   Clear
10:55 PM 20.8 °F 8.4 °F 2.1 °F 44% 30.20 in 10.0 mi East 12.7 mph - N/A   Clear
11:15 PM 20.3 °F 6.6 °F 2.3 °F 46% 30.20 in 10.0 mi East 15.0 mph - N/A   Clear
11:35 PM 19.6 °F 7.4 °F 2.5 °F 48% 30.19 in 10.0 mi East 11.5 mph - N/A   Clear
11:55 PM 19.4 °F 6.0 °F 2.3 °F 48% 30.19 in 10.0 mi East 13.8 mph 18.4 mph N/A   Clear